Weather History for Rogers City, MI

Change the Weather History Date:

Sunday, June 16, 2013

  Actual Average (KAPN) Record (KAPN)
Temperature  
Mean Temperature 66 °F 62 °F  
Max Temperature 79 °F 75 °F 96 °F (1994)
Min Temperature 53 °F 50 °F 31 °F (1942)
Degree Days  
Heating Degree Days 0 4  
Month to date heating degree days 100  
Since 1 June heating degree days 100  
Since 1 July heating degree days 8057  
Cooling Degree Days 1 2  
Month to date cooling degree days 22  
Year to date cooling degree days 35  
Since 1 June cooling degree days 22  
Growing Degree Days 16 (Base 50)    
Moisture  
Dew Point 57 °F    
Average Humidity 80    
Maximum Humidity 96    
Minimum Humidity 46    
Precipitation  
Precipitation 0.00 in 0.08 in 0.88 in (2010)
Month to date precipitation 1.36  
Year to date precipitation 11.26  
Sea Level Pressure  
Sea Level Pressure 29.79 in    
Wind  
Wind Speed 5 mph (WNW)    
Max Wind Speed 15 mph    
Max Gust Speed 22 mph    
Visibility 8 miles    
Events Rain    
T = Trace of Precipitation, MM = Missing Value Source: NWS Daily Summary

Daily Weather History Graph

Daily Weather History Graph

Search for Another Location

Airport:

Trip Planner

Search our weather history database for the weather conditions in past years. The results will help you decide how hot, cold, wet, or windy it might be!

Date:

Astronomy

Jun. 16, 2013 Rise Set
Actual Time 5:46 AM EDT 9:25 PM EDT
Civil Twilight 5:08 AM EDT 10:03 PM EDT
Nautical Twilight 4:17 AM EDT 10:54 PM EDT
Astronomical Twilight 3:09 AM EDT 12:02 AM EDT
Moon 1:42 PM EDT (6/16) 1:10 AM EDT (6/16)
Length of Visible Light 16h 55m
Length of Day
15h 39m
Waxing Crescent, 49% of the Moon is Illuminated
Jun 16
Waxing Crescent
Jun 16
First Quarter
Jun 23
Full
Jun 30
Last Quarter
Jul 8
New

Hourly Weather History & Observations

Time (EDT) Temp. Dew Point Humidity Pressure Visibility Wind Dir Wind Speed Gust Speed Precip Events Conditions
12:15 AM 63.0 °F 56.7 °F 80% 29.84 in 10.0 mi Calm Calm - N/A   Overcast
12:35 AM 62.6 °F 57.6 °F 84% 29.84 in 10.0 mi North 11.5 mph 17.3 mph N/A Rain Rain
12:54 AM 54.9 °F 51.3 °F 88% 29.83 in 10.0 mi North 5.8 mph - N/A Rain Light Rain
1:15 AM 54.0 °F 51.4 °F 91% 29.83 in 7.0 mi NNW 3.5 mph - N/A Rain Light Rain
1:35 AM 54.1 °F 52.0 °F 92% 29.83 in 5.0 mi NNW 3.5 mph - N/A Rain Rain
1:54 AM 53.8 °F 51.8 °F 93% 29.83 in 5.0 mi Calm Calm - N/A Rain Light Rain
2:15 AM 53.6 °F 51.6 °F 93% 29.82 in 7.0 mi Calm Calm - N/A Rain Light Rain
2:35 AM 53.8 °F 51.8 °F 93% 29.82 in 5.0 mi WNW 3.5 mph - N/A Rain Rain
2:54 AM 54.0 °F 52.0 °F 93% 29.82 in 4.0 mi NW 3.5 mph - N/A Rain Rain
3:15 AM 54.1 °F 52.5 °F 94% 29.79 in 2.5 mi Calm Calm - N/A Rain Rain
3:35 AM 54.0 °F 52.5 °F 95% 29.77 in 5.0 mi ESE 3.5 mph - N/A Rain Light Rain
3:55 AM 54.1 °F 52.7 °F 95% 29.76 in 4.0 mi SSE 5.8 mph - N/A Rain Rain
4:15 AM 54.1 °F 52.7 °F 95% 29.77 in 3.0 mi ESE 3.5 mph - N/A Rain Light Rain
4:34 AM 54.5 °F 53.1 °F 95% 29.77 in 4.0 mi SE 3.5 mph - N/A Rain Light Rain
4:55 AM 54.9 °F 53.6 °F 96% 29.78 in 5.0 mi Calm Calm - N/A Rain Light Rain
5:15 AM 55.4 °F 54.0 °F 95% 29.78 in 4.0 mi Calm Calm - N/A Rain Light Rain
5:34 AM 55.4 °F 53.8 °F 94% 29.78 in 3.0 mi WSW 3.5 mph - N/A Rain Light Rain
5:55 AM 55.4 °F 54.0 °F 95% 29.77 in 3.0 mi Calm Calm - N/A   Overcast
6:15 AM 55.6 °F 54.3 °F 96% 29.76 in 4.0 mi Calm Calm - N/A   Overcast
6:34 AM 55.9 °F 54.7 °F 96% 29.77 in 3.0 mi West 3.5 mph - N/A Rain Light Rain
6:55 AM 56.3 °F 55.2 °F 96% 29.78 in 3.0 mi Calm Calm - N/A   Overcast
7:15 AM 56.8 °F 55.6 °F 96% 29.77 in 4.0 mi WSW 3.5 mph - N/A   Overcast
7:35 AM 57.4 °F 56.1 °F 96% 29.77 in 4.0 mi West 3.5 mph - N/A   Overcast
7:55 AM 59.0 °F 57.7 °F 96% 29.77 in 5.0 mi West 5.8 mph - N/A   Overcast
8:15 AM 59.9 °F 58.5 °F 95% 29.78 in 7.0 mi West 6.9 mph - N/A   Overcast
8:35 AM 60.8 °F 59.2 °F 94% 29.77 in 7.0 mi West 4.6 mph - N/A   Overcast
8:55 AM 61.7 °F 59.9 °F 94% 29.78 in 7.0 mi West 4.6 mph - N/A   Overcast
9:15 AM 62.6 °F 60.4 °F 93% 29.78 in 7.0 mi WNW 6.9 mph - N/A   Overcast
9:35 AM 62.6 °F 60.3 °F 92% 29.79 in 7.0 mi NW 5.8 mph - N/A   Overcast
9:54 AM 62.2 °F 59.9 °F 92% 29.80 in 2.5 mi NW 10.4 mph - N/A   Overcast
10:15 AM 62.1 °F 60.1 °F 93% 29.80 in 1.5 mi West 5.8 mph - N/A   Overcast
10:35 AM 64.4 °F 61.7 °F 91% 29.79 in 7.0 mi NW 5.8 mph - N/A   Overcast
10:54 AM 67.1 °F 63.0 °F 87% 29.79 in 10.0 mi WNW 8.1 mph - N/A   Mostly Cloudy
11:15 AM 68.2 °F 62.2 °F 81% 29.79 in 10.0 mi West 10.4 mph - N/A   Mostly Cloudy
11:35 AM 68.7 °F 62.4 °F 80% 29.78 in 10.0 mi WNW 6.9 mph - N/A   Overcast
11:54 AM 68.9 °F 62.4 °F 80% 29.79 in 10.0 mi West 4.6 mph - N/A   Overcast
12:15 PM 70.7 °F 62.2 °F 75% 29.78 in 10.0 mi West 8.1 mph - N/A   Mostly Cloudy
12:35 PM 72.1 °F 62.6 °F 72% 29.77 in 10.0 mi WSW 5.8 mph - N/A   Scattered Clouds
12:55 PM 72.7 °F 63.1 °F 72% 29.77 in 10.0 mi SW 9.2 mph - N/A   Scattered Clouds
1:15 PM 73.4 °F 62.2 °F 68% 29.76 in 10.0 mi SW 10.4 mph 16.1 mph N/A   Scattered Clouds
1:35 PM 74.3 °F 62.1 °F 65% 29.76 in 10.0 mi SSW 11.5 mph 17.3 mph N/A   Clear
1:55 PM 75.2 °F 61.9 °F 63% 29.75 in 10.0 mi SW 9.2 mph - N/A   Clear
2:15 PM 76.1 °F 61.3 °F 60% 29.74 in 10.0 mi SW 12.7 mph 17.3 mph N/A   Clear
2:35 PM 77.5 °F 59.4 °F 53% 29.74 in 10.0 mi WSW 10.4 mph 18.4 mph N/A   Clear
2:55 PM 78.1 °F 58.3 °F 50% 29.74 in 10.0 mi WSW 15.0 mph 19.6 mph N/A   Clear
3:14 PM 78.4 °F 55.9 °F 46% 29.75 in 10.0 mi West 11.5 mph 21.9 mph N/A   Clear
3:35 PM 79.0 °F 57.4 °F 47% 29.75 in 10.0 mi WSW 12.7 mph 20.7 mph N/A   Scattered Clouds
3:54 PM 79.0 °F 57.2 °F 47% 29.76 in 10.0 mi West 13.8 mph 21.9 mph N/A   Mostly Cloudy
4:15 PM 78.3 °F 56.5 °F 47% 29.77 in 10.0 mi West 10.4 mph 19.6 mph N/A   Mostly Cloudy
4:35 PM 69.1 °F 57.0 °F 65% 29.78 in 10.0 mi North 10.4 mph 19.6 mph N/A   Mostly Cloudy
4:54 PM 63.9 °F 57.4 °F 79% 29.79 in 10.0 mi North 11.5 mph - N/A   Overcast
5:15 PM 64.9 °F 58.3 °F 79% 29.78 in 10.0 mi North 6.9 mph - N/A   Mostly Cloudy
5:35 PM 66.4 °F 58.5 °F 76% 29.79 in 10.0 mi North 5.8 mph - N/A   Mostly Cloudy
5:54 PM 66.4 °F 59.4 °F 78% 29.79 in 10.0 mi North 3.5 mph - N/A   Mostly Cloudy
6:15 PM 74.8 °F 55.8 °F 51% 29.79 in 10.0 mi WNW 8.1 mph 17.3 mph N/A   Scattered Clouds
6:35 PM 66.7 °F 57.6 °F 72% 29.79 in 10.0 mi North 4.6 mph - N/A   Clear
6:55 PM 70.9 °F 57.4 °F 62% 29.78 in 10.0 mi NNE 6.9 mph - N/A   Clear
7:15 PM 63.7 °F 56.3 °F 77% 29.79 in 10.0 mi North 5.8 mph - N/A   Clear
7:34 PM 61.2 °F 55.8 °F 82% 29.80 in 10.0 mi NNW 4.6 mph - N/A   Scattered Clouds
7:55 PM 66.0 °F 57.4 °F 74% 29.80 in 10.0 mi West 6.9 mph - N/A   Scattered Clouds
8:15 PM 70.0 °F 55.9 °F 61% 29.80 in 10.0 mi WSW 4.6 mph - N/A   Clear
8:34 PM 68.9 °F 54.7 °F 60% 29.80 in 10.0 mi West 5.8 mph - N/A   Clear
8:55 PM 67.3 °F 54.7 °F 64% 29.81 in 10.0 mi WSW 5.8 mph - N/A   Clear
9:15 PM 66.2 °F 55.0 °F 67% 29.82 in 10.0 mi West 4.6 mph - N/A   Clear
9:34 PM 64.6 °F 55.6 °F 73% 29.82 in 10.0 mi West 4.6 mph - N/A   Clear
9:55 PM 63.5 °F 55.6 °F 75% 29.82 in 10.0 mi WSW 5.8 mph - N/A   Clear
10:15 PM 63.1 °F 55.8 °F 77% 29.82 in 10.0 mi WSW 4.6 mph - N/A   Clear
10:35 PM 59.4 °F 53.6 °F 81% 29.84 in 10.0 mi North 6.9 mph - N/A   Scattered Clouds
10:55 PM 58.6 °F 54.1 °F 85% 29.85 in 10.0 mi WNW 3.5 mph - N/A   Mostly Cloudy
11:14 PM 61.0 °F 55.4 °F 82% 29.86 in 10.0 mi WNW 5.8 mph - N/A   Overcast
11:35 PM 60.8 °F 55.4 °F 82% 29.84 in 10.0 mi NW 3.5 mph - N/A Rain Light Rain
11:55 PM 60.3 °F 54.5 °F 81% 29.83 in 10.0 mi Calm Calm - N/A   Mostly Cloudy